sat.trackr.live / text

‹ back to catalog

STARLINK-36622

NORAD 67667 · 2026-022V

PAYLOAD ACTIVE UNKNOWN

§ Identity

Operator
Country
US
Launch date
2026-02-02
Launch site
AFWTR
Launch vehicle
Mass (kg)
RCS (m²)

Purposes: comms

External: N2YO · Heavens-Above · Gunter

§ Orbital elements

Epoch: 2026-09-19T20:06:29.152224Z

Period
93.90 min
Inclination
97.2860°
Eccentricity
0.0000320
Mean motion
15.33473257 rev/d
Perigee alt
465.2 km
Apogee alt
465.7 km
Semi-major
6,843.6 km
B*
6.7665e-4
RAAN
294.3804°
Arg perigee
102.3687°
Mean anomaly
257.7592°
Rev number
3,532

§ Raw data

STARLINK-366221 67667U 26022V   26262.83783741  .00021852  00000+0  67665-3 0  99932 67667  97.2860 294.3804 0000320 102.3687 257.7592 15.33473257 35328

JSON: /api/v1/satellites/67667 · /tle

For live sub-satellite position, see the globe view (requires WebGL).

§ Visibility from observer

Set your observer location to see the next 7 days of passes ≥ 10°. The values pass through the URL so the page stays shareable.

No JS? Fill the form by hand. The geolocation button needs JavaScript.